IW2LSY-11 Weather Reports


time (UTC)temp
C
wind
direction
speed
KPH
gust
KPH
rain 1hr
cm
rain 24hr
cm
rain mn
cm
humidity
%
barometer
mb
20260507015007 10 131 0.0 0.0 0.00 0.00 0.00 96 1014.6
20260507014007 10 131 0.0 0.0 0.00 0.00 0.00 95 1014.4
20260507013007 10 131 0.0 0.0 0.00 0.00 0.00 98 1014.3
20260507012008 10 131 0.0 0.0 0.00 0.00 0.00 98 1014.5
20260507011008 10 131 0.0 0.0 0.00 0.00 0.00 97 1014.5
20260507010009 10 131 0.0 0.0 0.00 0.00 0.00 97 1014.6
20260507005009 10 131 0.0 0.0 0.00 0.00 0.00 96 1014.6
20260507004010 10 131 0.0 0.0 0.00 0.00 0.00 97 1014.8
20260507003010 10 131 0.0 0.0 0.00 0.00 0.00 98 1015.1
20260507002010 10 131 0.0 0.0 0.00 0.00 0.00 95 1014.8
20260507001011 10 131 0.0 0.0 0.00 0.00 0.00 94 1014.8
20260507000012 10 131 0.0 0.0 0.00 0.00 0.00 97 1014.9
20260506235012 10 131 0.0 0.0 0.00 0.00 0.00 97 1014.7
20260506234013 10 131 0.0 0.0 0.00 0.00 0.00 93 1014.6
20260506233014 10 131 0.0 0.0 0.00 0.00 0.00 92 1014.3
20260506232014 10 131 0.0 0.0 0.00 0.00 0.00 98 1014.0
20260506231014 9 131 0.0 0.0 0.00 0.00 0.00 10 1013.8
20260506230014 10 131 0.0 0.0 0.00 0.00 0.00 99 1013.7
20260506225015 9 145 0.0 0.0 0.00 0.00 0.00 10 1014.0
20260506224005 8 145 0.0 0.0 0.00 0.00 0.00 10 1014.2
20260506223005 10 145 0.0 0.0 0.00 0.00 0.00 94 1014.3
20260506222006 10 145 0.0 0.0 0.00 0.00 0.00 96 1014.2
20260506221006 10 145 0.0 0.0 0.00 0.00 0.00 98 1014.2
20260506220006 10 145 0.0 0.0 0.00 0.00 0.00 97 1014.2
20260506215007 11 145 0.0 0.0 0.00 0.00 0.00 92 1014.2
20260506214007 11 145 0.0 0.0 0.00 0.00 0.00 92 1014.3
20260506213008 10 145 0.0 0.0 0.00 0.00 0.00 94 1014.3
20260506212009 11 145 0.0 0.0 0.00 0.00 0.00 92 1014.5
20260506211009 10 145 0.0 0.0 0.00 0.00 0.00 94 1014.7
20260506210010 10 145 0.0 0.0 0.00 0.00 0.00 94 1014.8
20260506205011 11 145 0.0 0.0 0.00 0.00 0.00 96 1014.8
20260506204011 10 145 0.0 0.0 0.00 0.00 0.00 99 1014.8
20260506203011 11 145 0.0 0.0 0.00 0.00 0.00 92 1014.4
20260506202012 10 145 0.0 0.0 0.00 0.00 0.00 94 1013.8
20260506201012 11 145 0.0 0.0 0.00 0.00 0.00 91 1013.8
20260506200012 10 145 0.0 0.0 0.00 0.00 0.00 94 1013.7
20260506195012 10 145 0.0 0.0 0.00 0.00 0.00 95 1013.6
20260506194013 10 145 0.0 0.0 0.00 0.00 0.00 95 1013.6
20260506193013 10 145 0.0 0.0 0.00 0.00 0.00 93 1013.4
20260506192013 10 145 0.0 0.0 0.00 0.00 0.00 95 1013.5
20260506191013 11 145 0.0 0.0 0.00 0.00 0.00 93 1013.3
20260506190013 11 145 0.0 0.0 0.00 0.00 0.00 94 1013.2
20260506185014 11 145 0.0 0.0 0.00 0.00 0.00 94 1013.1
20260506184015 11 145 0.0 0.0 0.00 0.00 0.00 92 1012.9
20260506183015 11 145 0.0 0.0 0.00 0.00 0.00 91 1013.0
20260506182004 10 145 0.0 0.0 0.00 0.00 0.00 99 1012.8
20260506181005 10 145 0.0 0.0 0.00 0.00 0.00 10 1012.9
20260506180006 10 145 0.0 0.0 0.00 0.00 0.00 10 1012.9
20260506175006 11 145 0.0 0.0 0.00 0.00 0.00 93 1012.8
20260506174007 12 145 0.0 0.0 0.00 0.00 0.00 88 1012.8
20260506173007 11 145 0.0 0.0 0.00 0.00 0.00 93 1012.9
20260506172008 11 145 0.0 0.0 0.00 0.00 0.00 92 1013.0
20260506171009 11 145 0.0 0.0 0.00 0.00 0.00 95 1012.7
20260506170009 12 145 0.0 0.0 0.00 0.00 0.00 94 1012.2
20260506165009 12 145 0.0 0.0 0.00 0.00 0.00 92 1012.0
20260506164010 12 145 0.0 0.0 0.00 0.00 0.00 95 1011.8
20260506163010 12 145 0.0 0.0 0.00 0.00 0.00 96 1011.6
20260506162011 12 145 0.0 0.0 0.00 0.00 0.00 95 1011.4
20260506161012 12 145 0.0 0.0 0.00 0.00 0.00 90 1011.0
20260506160012 13 145 0.0 0.0 0.00 0.00 0.00 80 1010.8
20260506155012 13 145 0.0 0.0 0.00 0.00 0.00 81 1010.5
20260506154013 13 145 0.0 0.0 0.00 0.00 0.00 83 1010.3
20260506153014 15 145 0.0 0.0 0.00 0.00 0.00 77 1010.1
20260506152015 15 145 0.0 0.0 0.00 0.00 0.00 75 1010.0
20260506151004 15 145 0.0 0.0 0.00 0.00 0.00 73 1009.9
20260506150005 15 145 0.0 0.0 0.00 0.00 0.00 69 1009.8
20260506145006 15 145 0.0 0.0 0.00 0.00 0.00 61 1009.7
20260506144007 15 145 0.0 0.0 0.00 0.00 0.00 59 1009.8
20260506143007 16 145 0.0 0.0 0.00 0.00 0.00 61 1009.7
20260506142007 15 145 0.0 0.0 0.00 0.00 0.00 60 1009.9
20260506141008 15 145 0.0 0.0 0.00 0.00 0.00 69 1010.0
20260506140008 15 145 0.0 0.0 0.00 0.00 0.00 73 1010.4
20260506135009 14 145 0.0 0.0 0.00 0.00 0.00 74 1010.4
20260506134009 15 145 0.0 0.0 0.00 0.00 0.00 64 1010.1
20260506133010 15 145 0.0 0.0 0.00 0.00 0.00 62 1009.9
20260506132010 15 145 0.0 0.0 0.00 0.00 0.00 63 1009.9
20260506131011 15 145 0.0 0.0 0.00 0.00 0.00 56 1009.9
20260506130011 15 145 0.0 0.0 0.00 0.00 0.00 55 1010.0
20260506125011 16 145 0.0 0.0 0.00 0.00 0.00 55 1010.0
20260506124012 15 145 0.0 0.0 0.00 0.00 0.00 60 1010.0
20260506123012 15 145 0.0 0.0 0.00 0.00 0.00 62 1009.9
20260506122012 15 145 0.0 0.0 0.00 0.00 0.00 75 1010.1
20260506121012 14 145 0.0 0.0 0.00 0.00 0.00 81 1010.0
20260506120012 15 145 0.0 0.0 0.00 0.00 0.00 78 1009.9
20260506115013 14 145 0.0 0.0 0.00 0.00 0.00 75 1010.0
20260506114014 15 145 0.0 0.0 0.00 0.00 0.00 78 1010.3
20260506113014 13 145 0.0 0.0 0.00 0.00 0.00 79 1010.4
20260506112014 14 145 0.0 0.0 0.00 0.00 0.00 85 1010.5
20260506111014 13 145 0.0 0.0 0.00 0.00 0.00 86 1010.6
20260506110015 14 145 0.0 0.0 0.00 0.00 0.00 83 1010.7
20260506105005 14 145 0.0 0.0 0.00 0.00 0.00 80 1010.7
20260506104005 14 145 0.0 0.0 0.00 0.00 0.00 79 1010.6
20260506103006 14 145 0.0 0.0 0.00 0.00 0.00 79 1010.6
20260506102006 14 145 0.0 0.0 0.00 0.00 0.00 83 1010.7
20260506101007 14 145 0.0 0.0 0.00 0.00 0.00 85 1010.5
20260506100008 14 145 0.0 0.0 0.00 0.00 0.00 85 1010.2
20260506095008 14 145 0.0 0.0 0.00 0.00 0.00 79 1009.6
20260506094009 13 145 0.0 0.0 0.00 0.00 0.00 79 1009.5
20260506093009 13 145 0.0 0.0 0.00 0.00 0.00 78 1009.5
20260506092009 14 145 0.0 0.0 0.00 0.00 0.00 76 1009.5
20260506091009 14 145 0.0 0.0 0.00 0.00 0.00 68 1009.5
20260506090010 13 145 0.0 0.0 0.00 0.00 0.00 66 1009.5
20260506085010 13 145 0.0 0.0 0.00 0.00 0.00 69 1009.6
20260506084011 13 145 0.0 0.0 0.00 0.00 0.00 79 1009.6
20260506083012 14 145 0.0 0.0 0.00 0.00 0.00 81 1009.8
20260506082013 14 145 0.0 0.0 0.00 0.00 0.00 87 1009.7
20260506081013 13 145 0.0 0.0 0.00 0.00 0.00 88 1009.9
20260506073004 13 145 0.0 0.0 0.00 0.00 0.00 90 1010.6
20260506072004 13 145 0.0 0.0 0.00 0.00 0.00 93 1010.6
20260506071005 13 145 0.0 0.0 0.00 0.00 0.00 94 1010.5
20260506062008 12 145 0.0 0.0 0.00 0.00 0.00 97 1010.9
20260506061008 13 145 0.0 0.0 0.00 0.00 0.00 96 1011.0
20260506051010 12 145 0.0 0.0 0.00 0.00 0.00 95 1010.9
20260506045010 12 145 0.0 0.0 0.00 0.00 0.00 99 1010.7
20260506044010 12 145 0.0 0.0 0.00 0.00 0.00 95 1010.8
20260506043011 12 145 0.0 0.0 0.00 0.00 0.00 10 1010.5
20260506042011 12 145 0.0 0.0 0.00 0.00 0.00 97 1010.5
20260506041011 12 145 0.0 0.0 0.00 0.00 0.00 10 1010.7
20260506040011 11 145 0.0 0.0 0.00 0.00 0.00 10 1010.6
20260506035012 12 145 0.0 0.0 0.00 0.00 0.00 10 1010.7
20260506034013 12 145 0.0 0.0 0.00 0.00 0.00 10 1010.9
20260506033013 12 145 0.0 0.0 0.00 0.00 0.00 10 1011.0
20260506032013 12 145 0.0 0.0 0.00 0.00 0.00 10 1010.9
20260506031013 11 145 0.0 0.0 0.00 0.00 0.00 10 1011.2
20260506030013 12 145 0.0 0.0 0.00 0.00 0.00 95 1011.4
20260506025014 11 145 0.0 0.0 0.00 0.00 0.00 10 1011.5
20260506024015 12 145 0.0 0.0 0.00 0.00 0.00 10 1011.7
20260506023004 12 145 0.0 0.0 0.00 0.00 0.00 10 1011.7
20260506022005 12 145 0.0 0.0 0.00 0.00 0.00 95 1011.9
20260506021005 12 145 0.0 0.0 0.00 0.00 0.00 95 1012.1
20260506020005 12 145 0.0 0.0 0.00 0.00 0.00 94 1012.1